This is the latest recevied weather packets stored in our database for station/object KD8ZLZ-13. If no packets are shown the sender has not sent any weather packets the latest 10 day(s).
| Time | Temp. | Humidity | Pressure | Rain* | Wind** | Luminosity | Snow |
|---|---|---|---|---|---|---|---|
| 1777971182 | 14.44° C | 82% | 1002.7 hPa | 0 mm | - | 0 W/m² | - |
| 1777970582 | 14.44° C | 82% | 1002.7 hPa | 0 mm | - | 0 W/m² | - |
| 1777969982 | 14.44° C | 82% | 1002 hPa | 0 mm | - | 0 W/m² | - |
| 1777969382 | 14.44° C | 83% | 1002 hPa | 0 mm | - | 0 W/m² | - |
| 1777968782 | 14.44° C | 83% | 1002 hPa | 0 mm | - | 0 W/m² | - |
| 1777968182 | 14.44° C | 84% | 1001.7 hPa | 0 mm | - | 0 W/m² | - |
| 1777967582 | 14.44° C | 84% | 1001.7 hPa | 0 mm | - | 0 W/m² | - |
| 1777966982 | 14.44° C | 84% | 1001.3 hPa | 0 mm | - | 0 W/m² | - |
| 1777966382 | 14.44° C | 86% | 1001.7 hPa | 0 mm | - | 0 W/m² | - |
| 1777965782 | 14.44° C | 86% | 1001.7 hPa | 0 mm | - | 0 W/m² | - |
| 1777965182 | 14.44° C | 85% | 1001.7 hPa | 0 mm | - | 0 W/m² | - |
| 1777964582 | 14.44° C | 83% | 1002 hPa | 0 mm | - | 0 W/m² | - |
| 1777963982 | 15° C | 82% | 1002 hPa | 0 mm | - | 0 W/m² | - |
| 1777963382 | 14.44° C | 84% | 1002 hPa | 0 mm | - | 0 W/m² | - |
| 1777962782 | 14.44° C | 84% | 1001.7 hPa | 0 mm | - | 0 W/m² | - |
| 1777962593 | 14.44° C | 83% | 1001.7 hPa | 0 mm | - | 0 W/m² | - |
| 1777962124 | 14.44° C | 84% | 1001.7 hPa | 0 mm | - | 0 W/m² | - |
| 1777961524 | 14.44° C | 86% | 1001.7 hPa | 0 mm | - | 0 W/m² | - |
| 1777960924 | 14.44° C | 86% | 1002 hPa | 0.76 mm | - | 0 W/m² | - |
| 1777960324 | 14.44° C | 86% | 1002 hPa | 1.27 mm | - | 0 W/m² | - |
| 1777959724 | 14.44° C | 86% | 1001.7 hPa | 1.02 mm | - | 0 W/m² | - |
| 1777959124 | 14.44° C | 86% | 1002.3 hPa | 1.52 mm | - | 0 W/m² | - |
| 1777958524 | 15° C | 85% | 1002.4 hPa | 0.51 mm | - | 0 W/m² | - |
| 1777957924 | 15° C | 83% | 1002.4 hPa | 1.02 mm | - | 0 W/m² | - |
| 1777957324 | 15.56° C | 79% | 1002.7 hPa | 0.25 mm | - | 0 W/m² | - |
* Rain latest hour (hover to see other rain measurements)
** Current wind speed in m/s (hover to see current wind gust speed)